GW1821 Weather Reports


Display with metric or nautical units.
time (UTC)temp
F
wind
direction
speed
MPH
gust
MPH
rain 1hr
in
rain 24hr
in
rain mn
in
humidity
%
barometer
mb
20221206094014 10 316 1.0 3.0 0.00 0.00 0.00 86 1015.9
20221206093517 9 309 1.0 3.0 0.00 0.00 0.00 86 1015.8
20221206093015 9 309 1.0 3.0 0.00 0.00 0.00 86 1015.6
20221206092515 9 309 0.0 3.0 0.00 0.00 0.00 86 1015.1
20221206092009 9 309 1.0 3.0 0.00 0.00 0.00 86 1015.5
20221206091736 9 309 1.0 2.0 0.00 0.00 0.00 86 1015.7
20221206091234 9 309 0.0 2.0 0.00 0.00 0.00 86 1015.7
20221206090507 9 309 0.0 1.0 0.00 0.00 0.00 86 1015.7
20221206090006 9 309 0.0 0.0 0.00 0.00 0.00 85 1015.7
20221206085500 10 309 0.0 0.0 0.00 0.00 0.00 85 1015.7
20221206084952 10 309 0.0 0.0 0.00 0.00 0.00 86 1015.8
20221206084945 10 309 0.0 0.0 0.00 0.00 0.00 85 1015.6
20221206083936 10 309 0.0 0.0 0.00 0.00 0.00 86 1015.7
20221206083426 10 309 0.0 0.0 0.00 0.00 0.00 85 1016.1
20221206082911 10 309 0.0 0.0 0.00 0.00 0.00 85 1016.4
20221206082409 10 309 0.0 0.0 0.00 0.00 0.00 85 1016.3
20221206081901 11 309 0.0 0.0 0.00 0.00 0.00 84 1016.3
20221206081351 11 309 0.0 0.0 0.00 0.00 0.00 84 1016.2
20221206080850 11 309 0.0 0.0 0.00 0.00 0.00 83 1016.1
20221206080344 11 309 0.0 0.0 0.00 0.00 0.00 83 1016.0
20221206075844 12 309 0.0 0.0 0.00 0.00 0.00 83 1015.9
20221206075559 12 309 0.0 0.0 0.00 0.00 0.00 83 1015.7
20221206074815 12 309 0.0 0.0 0.00 0.00 0.00 83 1015.7
20221206074309 12 309 0.0 0.0 0.00 0.00 0.00 83 1015.7
20221206073808 13 309 0.0 0.0 0.00 0.00 0.00 83 1015.6
20221206073310 13 309 0.0 0.0 0.00 0.00 0.00 84 1015.6
20221206073306 13 309 0.0 0.0 0.00 0.00 0.00 84 1015.6
20221206072306 12 309 0.0 0.0 0.00 0.00 0.00 84 1015.7
20221206072237 12 309 0.0 1.0 0.00 0.00 0.00 83 1015.7
20221206071206 12 309 0.0 1.0 0.00 0.00 0.00 84 1015.8
20221206070708 12 309 0.0 0.0 0.00 0.00 0.00 83 1015.7
20221206070207 12 309 0.0 0.0 0.00 0.00 0.00 83 1015.8
20221206070203 12 309 0.0 0.0 0.00 0.00 0.00 83 1015.7
20221206065158 13 309 0.0 0.0 0.00 0.00 0.00 82 1015.8
20221206064658 13 309 0.0 0.0 0.00 0.00 0.00 82 1015.8
20221206064144 13 309 0.0 1.0 0.00 0.00 0.00 82 1015.8
20221206063637 13 309 0.0 1.0 0.00 0.00 0.00 82 1015.6
20221206063136 13 309 0.0 0.0 0.00 0.00 0.00 81 1015.5
20221206062604 13 309 0.0 1.0 0.00 0.00 0.00 81 1015.4
20221206062058 13 309 0.0 0.0 0.00 0.00 0.00 81 1015.4
20221206061558 13 309 0.0 0.0 0.00 0.00 0.00 80 1015.3
20221206061328 13 309 0.0 1.0 0.00 0.00 0.00 80 1015.4
20221206060545 14 309 1.0 2.0 0.00 0.00 0.00 80 1015.4
20221206060038 14 309 0.0 2.0 0.00 0.00 0.00 79 1015.3
20221206055531 14 309 0.0 2.0 0.00 0.00 0.00 79 1015.1
20221206055305 14 309 0.0 1.0 0.00 0.00 0.00 78 1015.1
20221206054512 14 309 0.0 1.0 0.00 0.00 0.00 78 1015.1
20221206054000 15 309 0.0 2.0 0.00 0.00 0.00 78 1015.1
20221206053448 15 309 1.0 4.0 0.00 0.00 0.00 77 1015.1
20221206052942 15 309 1.0 4.0 0.00 0.00 0.00 77 1015.1
20221206052424 15 313 2.0 4.0 0.00 0.00 0.00 77 1015.1
20221206051924 15 330 2.0 5.0 0.00 0.00 0.00 77 1015.3
20221206051421 15 321 2.0 5.0 0.00 0.00 0.00 77 1015.1
20221206050920 16 314 2.0 4.0 0.00 0.00 0.00 76 1014.9
20221206050405 16 316 2.0 4.0 0.00 0.00 0.00 76 1015.0
20221206045906 16 319 1.0 3.0 0.00 0.00 0.00 76 1015.0
20221206045402 16 319 1.0 3.0 0.00 0.00 0.00 75 1014.9
20221206045358 16 317 1.0 3.0 0.00 0.00 0.00 75 1014.9
20221206044342 17 319 1.0 3.0 0.00 0.00 0.00 75 1014.9
20221206044058 17 319 1.0 5.0 0.00 0.00 0.00 74 1014.7
20221206043317 17 319 1.0 5.0 0.00 0.00 0.00 74 1014.7
20221206042813 17 319 2.0 5.0 0.00 0.00 0.00 74 1014.7
20221206042546 17 313 3.0 5.0 0.00 0.00 0.00 74 1014.7
20221206041813 17 308 2.0 5.0 0.00 0.00 0.00 74 1014.7
20221206041309 17 317 2.0 3.0 0.00 0.00 0.00 74 1014.5
20221206041031 18 319 1.0 5.0 0.00 0.00 0.00 74 1014.4
20221206040257 18 312 2.0 5.0 0.00 0.00 0.00 73 1014.6
20221206035757 18 306 2.0 5.0 0.00 0.00 0.00 73 1014.7
20221206035257 18 309 2.0 5.0 0.00 0.00 0.00 73 1014.6
20221206034753 18 332 2.0 5.0 0.00 0.00 0.00 73 1014.6
20221206034251 18 307 2.0 5.0 0.00 0.00 0.00 73 1014.6
20221206033748 18 312 2.0 5.0 0.00 0.00 0.00 72 1014.6
20221206033249 18 307 2.0 5.0 0.00 0.00 0.00 72 1014.6
20221206032745 18 327 2.0 7.0 0.00 0.00 0.00 72 1014.5
20221206032246 18 327 2.0 7.0 0.00 0.00 0.00 72 1014.6
20221206031745 18 319 1.0 5.0 0.00 0.00 0.00 71 1014.4
20221206031248 19 321 2.0 4.0 0.00 0.00 0.00 70 1014.2
20221206031244 18 321 1.0 4.0 0.00 0.00 0.00 70 1014.3
20221206030239 19 323 2.0 7.0 0.00 0.00 0.00 69 1014.2
20221206025735 19 322 3.0 7.0 0.00 0.00 0.00 69 1014.3
20221206025229 19 355 3.0 8.0 0.00 0.00 0.00 69 1014.3
20221206024957 20 331 3.0 8.0 0.00 0.00 0.00 68 1014.3
20221206024458 20 313 3.0 8.0 0.00 0.00 0.00 68 1014.3
20221206023724 20 311 3.0 9.0 0.00 0.00 0.00 67 1014.2
20221206023223 20 320 3.0 9.0 0.00 0.00 0.00 67 1014.1
20221206022955 20 321 2.0 4.0 0.00 0.00 0.00 67 1014.1
20221206022219 20 328 2.0 5.0 0.00 0.00 0.00 66 1014.3
20221206021717 20 325 1.0 5.0 0.00 0.00 0.00 66 1014.3
20221206021211 20 321 2.0 5.0 0.00 0.00 0.00 65 1014.2
20221206020939 21 321 2.0 5.0 0.00 0.00 0.00 65 1014.1
20221206020203 21 334 2.0 6.0 0.00 0.00 0.00 65 1013.9
20221206015655 21 299 2.0 6.0 0.00 0.00 0.00 64 1013.8
20221206015156 21 330 2.0 4.0 0.00 0.00 0.00 64 1013.7
20221206014657 22 298 3.0 11.0 0.00 0.00 0.00 63 1013.6
20221206014153 22 312 4.0 11.0 0.00 0.00 0.00 63 1013.7
20221206013652 22 296 4.0 12.0 0.00 0.00 0.00 62 1013.6
20221206013154 22 305 4.0 12.0 0.00 0.00 0.00 62 1013.6
20221206012640 22 308 3.0 8.0 0.00 0.00 0.00 62 1013.6
20221206012406 22 288 3.0 9.0 0.00 0.00 0.00 62 1013.6
20221206011635 22 309 3.0 9.0 0.00 0.00 0.00 61 1013.5
20221206011115 23 319 3.0 9.0 0.00 0.00 0.00 61 1013.5
20221206010615 23 313 3.0 8.0 0.00 0.00 0.00 61 1013.4
20221206010103 23 308 3.0 8.0 0.00 0.00 0.00 61 1013.4
20221206005558 23 298 2.0 8.0 0.00 0.00 0.00 60 1013.5
20221206005059 24 310 2.0 8.0 0.00 0.00 0.00 60 1013.4
20221206004557 24 280 3.0 8.0 0.00 0.00 0.00 60 1013.4
20221206004052 24 300 3.0 10.0 0.00 0.00 0.00 60 1013.3
20221206003552 24 296 3.0 10.0 0.00 0.00 0.00 60 1013.2
20221206003319 24 294 4.0 10.0 0.00 0.00 0.00 60 1013.2
20221206002546 24 292 4.0 10.0 0.00 0.00 0.00 59 1013.1
20221206002045 25 328 4.0 9.0 0.00 0.00 0.00 60 1013.0
20221206001544 25 327 4.0 9.0 0.00 0.00 0.00 60 1013.1
20221206001045 25 296 3.0 9.0 0.00 0.00 0.00 59 1013.1
20221206000542 25 289 2.0 6.0 0.00 0.00 0.00 59 1013.0
20221206000040 25 294 3.0 7.0 0.00 0.00 0.00 59 1013.0
20221205235541 25 277 4.0 10.0 0.00 0.00 0.00 58 1012.9
20221205235033 25 265 4.0 10.0 0.00 0.00 0.00 59 1012.8
20221205234529 26 309 4.0 12.0 0.00 0.00 0.00 59 1012.8
20221205234025 26 312 4.0 12.0 0.00 0.00 0.00 58 1012.8
20221205233523 26 298 3.0 8.0 0.00 0.00 0.00 58 1012.8
20221205233251 26 297 4.0 9.0 0.00 0.00 0.00 60 1012.7
20221205232520 26 291 4.0 9.0 0.00 0.00 0.00 60 1012.7
20221205232019 26 302 4.0 9.0 0.00 0.00 0.00 63 1012.7
20221205231510 26 308 3.0 8.0 0.00 0.00 0.00 65 1012.5
20221205231010 26 285 3.0 8.0 0.00 0.00 0.00 65 1012.4
20221205230742 26 300 3.0 9.0 0.00 0.00 0.00 68 1012.3
20221205230006 26 290 3.0 9.0 0.00 0.00 0.00 68 1012.3
20221205225506 26 238 3.0 8.0 0.00 0.00 0.00 68 1012.4
20221205224959 26 291 3.0 7.0 0.00 0.00 0.00 69 1012.3
20221205224725 26 317 3.0 7.0 0.00 0.00 0.00 69 1012.2
20221205223950 26 267 3.0 8.0 0.00 0.00 0.00 69 1012.2
20221205223447 26 312 3.0 9.0 0.00 0.00 0.00 69 1012.0
20221205222946 26 298 4.0 10.0 0.00 0.00 0.00 69 1012.0
20221205222444 26 278 5.0 11.0 0.00 0.00 0.00 69 1012.1
20221205221942 26 295 5.0 14.0 0.00 0.00 0.00 68 1011.9
20221205221441 26 297 5.0 14.0 0.00 0.00 0.00 67 1011.8
20221205220936 27 230 4.0 11.0 0.00 0.00 0.00 67 1011.7
20221205220437 27 302 4.0 11.0 0.00 0.00 0.00 67 1011.7
20221205215936 27 327 4.0 11.0 0.00 0.00 0.00 66 1011.7
20221205215430 27 298 5.0 12.0 0.00 0.00 0.00 66 1011.6
20221205214928 27 286 6.0 13.0 0.00 0.00 0.00 65 1011.7
20221205214427 27 309 5.0 13.0 0.00 0.00 0.00 64 1011.5
20221205213924 27 305 5.0 13.0 0.00 0.00 0.00 64 1011.2
20221205213421 28 302 6.0 14.0 0.00 0.00 0.00 63 1011.1
20221205212919 28 254 5.0 14.0 0.00 0.00 0.00 63 1011.1
20221205212420 28 299 6.0 14.0 0.00 0.00 0.00 62 1011.0
20221205211920 28 280 6.0 14.0 0.00 0.00 0.00 62 1010.9
20221205211425 28 303 5.0 9.0 0.00 0.00 0.00 62 1010.7
20221205211419 28 351 5.0 11.0 0.00 0.00 0.00 61 1010.8
20221205210425 29 5 4.0 10.0 0.00 0.00 0.00 63 1010.4
20221205210421 29 300 5.0 10.0 0.00 0.00 0.00 61 1010.5
20221205205416 29 313 4.0 8.0 0.00 0.00 0.00 62 1010.2
20221205204914 29 284 4.0 10.0 0.00 0.00 0.00 62 1010.3
20221205204415 29 291 3.0 10.0 0.00 0.00 0.00 61 1010.2
20221205203915 29 301 3.0 10.0 0.00 0.00 0.00 62 1010.1
20221205203414 29 280 4.0 10.0 0.00 0.00 0.00 61 1010.1
20221205202910 29 311 4.0 12.0 0.00 0.00 0.00 62 1010.1
20221205202411 29 287 4.0 12.0 0.00 0.00 0.00 63 1010.1
20221205201911 29 271 4.0 10.0 0.00 0.00 0.00 63 1010.1
20221205201410 29 288 4.0 10.0 0.00 0.00 0.00 63 1010.1
20221205200910 29 281 4.0 8.0 0.00 0.00 0.00 62 1010.0
20221205200407 29 288 3.0 8.0 0.00 0.00 0.00 63 1009.9
20221205195904 29 287 3.0 9.0 0.00 0.00 0.00 64 1009.8
20221205195403 29 288 3.0 9.0 0.00 0.00 0.00 65 1009.7
20221205194900 29 271 4.0 10.0 0.00 0.00 0.00 65 1009.6
20221205194402 29 290 5.0 12.0 0.00 0.00 0.00 65 1009.6
20221205193901 29 291 4.0 12.0 0.00 0.00 0.00 63 1009.6
20221205193358 30 319 4.0 10.0 0.00 0.00 0.00 64 1009.5
20221205192859 30 322 5.0 10.0 0.00 0.00 0.00 64 1009.6
20221205192359 30 304 4.0 10.0 0.00 0.00 0.00 64 1009.5
20221205191858 30 0 4.0 11.0 0.00 0.00 0.00 63 1009.5
20221205191353 30 290 3.0 11.0 0.00 0.00 0.00 63 1009.4
20221205191126 30 306 3.0 6.0 0.00 0.00 0.00 63 1009.4
20221205191026 30 306 3.0 9.0 0.00 0.00 0.00 65 1009.4
20221205190120 30 314 4.0 9.0 0.00 0.00 0.00 64 1009.3
20221205185347 30 285 4.0 9.0 0.00 0.00 0.00 65 1009.3
20221205184844 30 265 3.0 9.0 0.00 0.00 0.00 66 1009.3
20221205184607 30 270 3.0 7.0 0.00 0.00 0.00 66 1009.3
20221205183839 30 244 3.0 8.0 0.00 0.00 0.00 65 1009.4
20221205183332 30 271 2.0 8.0 0.00 0.00 0.00 67 1009.4
20221205182833 30 298 3.0 8.0 0.00 0.00 0.00 66 1009.3
20221205182330 30 323 3.0 8.0 0.00 0.00 0.00 66 1009.2
20221205181826 30 290 3.0 8.0 0.00 0.00 0.00 67 1009.1
20221205181557 30 308 2.0 6.0 0.00 0.00 0.00 66 1009.1
20221205180814 30 290 2.0 6.0 0.00 0.00 0.00 66 1009.0
20221205180312 30 292 2.0 8.0 0.00 0.00 0.00 67 1008.9
20221205175811 30 292 2.0 8.0 0.00 0.00 0.00 68 1008.9
20221205175309 30 292 2.0 8.0 0.00 0.00 0.00 68 1008.9
20221205174753 30 277 3.0 8.0 0.00 0.00 0.00 68 1008.8
20221205174254 30 310 3.0 8.0 0.00 0.00 0.00 68 1009.1
20221205173754 30 275 3.0 8.0 0.00 0.00 0.00 70 1009.1
20221205173524 30 295 3.0 7.0 0.00 0.00 0.00 70 1009.2
20221205173023 29 302 3.0 7.0 0.00 0.00 0.00 71 1009.3
20221205172253 29 288 3.0 9.0 0.00 0.00 0.00 71 1009.3
20221205171748 29 281 3.0 9.0 0.00 0.00 0.00 71 1009.3
20221205171247 29 278 3.0 9.0 0.00 0.00 0.00 71 1009.3
20221205170747 29 300 4.0 9.0 0.00 0.00 0.00 71 1009.4
20221205170244 29 299 4.0 9.0 0.00 0.00 0.00 72 1009.3
20221205165746 29 277 3.0 9.0 0.00 0.00 0.00 72 1009.4
20221205165241 29 295 4.0 9.0 0.00 0.00 0.00 73 1009.4
20221205164740 29 307 4.0 12.0 0.00 0.00 0.00 73 1009.4
20221205164234 29 288 3.0 12.0 0.00 0.00 0.00 73 1009.5
20221205163734 29 323 3.0 10.0 0.00 0.00 0.00 73 1009.5
20221205163233 29 333 4.0 10.0 0.00 0.00 0.00 73 1009.4
20221205162730 29 288 4.0 9.0 0.00 0.00 0.00 74 1009.5
20221205162230 29 290 3.0 9.0 0.00 0.00 0.00 74 1009.4
20221205161729 28 304 3.0 8.0 0.00 0.00 0.00 74 1009.2
20221205161228 28 289 2.0 8.0 0.00 0.00 0.00 74 1009.3
20221205160728 28 275 2.0 8.0 0.00 0.00 0.00 74 1009.1
20221205160221 28 275 3.0 8.0 0.00 0.00 0.00 75 1009.1
20221205155724 28 302 3.0 8.0 0.00 0.00 0.00 75 1009.0
20221205155218 28 248 3.0 7.0 0.00 0.00 0.00 75 1009.1
20221205154715 28 238 2.0 7.0 0.00 0.00 0.00 75 1008.9
20221205154211 28 296 3.0 7.0 0.00 0.00 0.00 75 1008.9
20221205153704 28 287 3.0 9.0 0.00 0.00 0.00 75 1008.7
20221205153203 28 281 2.0 9.0 0.00 0.00 0.00 76 1008.8
20221205152703 28 265 2.0 6.0 0.00 0.00 0.00 76 1008.7
20221205152201 28 259 2.0 7.0 0.00 0.00 0.00 76 1008.6
20221205151656 28 247 3.0 5.0 0.00 0.00 0.00 76 1008.5
20221205151145 28 299 2.0 5.0 0.00 0.00 0.00 76 1008.4
20221205150636 28 299 2.0 5.0 0.00 0.00 0.00 76 1008.5
20221205150135 28 287 2.0 8.0 0.00 0.00 0.00 77 1008.4
20221205145604 28 328 3.0 8.0 0.00 0.00 0.00 76 1008.1
20221205145100 28 290 3.0 8.0 0.00 0.00 0.00 76 1008.2
20221205144553 28 346 4.0 11.0 0.00 0.00 0.00 76 1008.2
20221205144056 28 306 3.0 11.0 0.00 0.00 0.00 77 1007.9
20221205143553 28 275 3.0 10.0 0.00 0.00 0.00 77 1008.0
20221205143051 28 281 4.0 10.0 0.00 0.00 0.00 77 1008.0
20221205142551 28 295 3.0 10.0 0.00 0.00 0.00 76 1008.0
20221205142050 27 296 3.0 7.0 0.00 0.00 0.00 76 1008.1
20221205141550 27 285 3.0 8.0 0.00 0.00 0.00 77 1007.9
20221205141049 27 296 3.0 8.0 0.00 0.00 0.00 77 1007.8
20221205140550 27 283 3.0 7.0 0.00 0.00 0.00 77 1007.6
20221205140314 27 301 3.0 8.0 0.00 0.00 0.00 77 1007.2
20221205135541 27 316 2.0 8.0 0.00 0.00 0.00 77 1007.1
20221205135038 27 309 2.0 8.0 0.00 0.00 0.00 78 1007.0
20221205134537 27 302 3.0 6.0 0.00 0.00 0.00 78 1007.0
20221205134035 27 287 3.0 6.0 0.00 0.00 0.00 77 1007.0
20221205133536 27 297 2.0 6.0 0.00 0.00 0.00 78 1006.8
20221205133033 27 296 2.0 6.0 0.00 0.00 0.00 78 1006.7
20221205132531 27 309 2.0 6.0 0.00 0.00 0.00 78 1006.8
20221205132259 27 306 2.0 6.0 0.00 0.00 0.00 78 1006.6
20221205131758 27 296 1.0 4.0 0.00 0.00 0.00 78 1006.7
20221205131019 27 300 2.0 6.0 0.00 0.00 0.00 78 1006.4
20221205130748 27 306 2.0 6.0 0.00 0.00 0.00 78 1006.4
20221205130015 27 266 2.0 4.0 0.00 0.00 0.00 78 1006.3
20221205125510 27 299 1.0 4.0 0.00 0.00 0.00 78 1006.2
20221205125002 27 278 2.0 4.0 0.00 0.00 0.00 78 1006.2
20221205124735 27 279 2.0 4.0 0.00 0.00 0.00 78 1006.1
20221205124003 27 301 1.0 4.0 0.00 0.00 0.00 78 1005.9
20221205123504 27 265 1.0 4.0 0.00 0.00 0.00 78 1005.9
20221205122956 27 290 1.0 4.0 0.00 0.00 0.00 78 1005.9
20221205122457 27 261 1.0 4.0 0.00 0.00 0.00 78 1005.9
20221205122230 27 267 1.0 4.0 0.00 0.00 0.00 78 1005.9
20221205121448 27 268 1.0 4.0 0.00 0.00 0.00 78 1005.9
20221205120946 27 258 1.0 4.0 0.00 0.00 0.00 78 1005.8
20221205120443 27 252 1.0 3.0 0.00 0.00 0.00 78 1005.7
20221205115937 27 265 1.0 3.0 0.00 0.00 0.00 78 1005.8
20221205115438 27 267 1.0 3.0 0.00 0.00 0.00 78 1005.7
20221205114936 27 266 1.0 3.0 0.00 0.00 0.00 78 1005.6
20221205113934 27 266 1.0 3.0 0.00 0.00 0.00 78 1005.4
20221205113429 27 265 1.0 3.0 0.00 0.00 0.00 79 1005.4
20221205113159 27 265 1.0 4.0 0.00 0.00 0.00 79 1005.4
20221205112428 27 265 1.0 4.0 0.00 0.00 0.00 79 1005.5
20221205111928 27 246 0.0 2.0 0.00 0.00 0.00 79 1005.6
20221205111422 27 246 0.0 2.0 0.00 0.00 0.00 79 1005.6
20221205110918 27 246 0.0 2.0 0.00 0.00 0.00 79 1005.6
20221205110416 27 246 0.0 2.0 0.00 0.00 0.00 79 1005.7
20221205105910 27 246 0.0 3.0 0.00 0.00 0.00 79 1005.7
20221205105409 27 246 0.0 3.0 0.00 0.00 0.00 79 1005.8
20221205104908 27 246 1.0 3.0 0.00 0.00 0.00 78 1005.8
20221205104408 27 246 1.0 4.0 0.00 0.00 0.00 78 1006.0
20221205104138 27 246 2.0 4.0 0.00 0.00 0.00 78 1005.9
20221205103402 28 256 1.0 4.0 0.00 0.00 0.00 78 1005.9
20221205102900 28 260 1.0 3.0 0.00 0.00 0.00 78 1005.7
20221205102400 28 260 2.0 4.0 0.00 0.00 0.00 78 1005.7
20221205101853 28 267 1.0 4.0 0.00 0.00 0.00 78 1005.7
20221205101352 28 300 1.0 2.0 0.00 0.00 0.00 78 1005.5
20221205100853 28 302 1.0 5.0 0.00 0.00 0.00 78 1005.6
20221205100350 27 304 2.0 5.0 0.00 0.00 0.00 79 1005.2
20221205095847 27 301 2.0 5.0 0.00 0.00 0.00 79 1005.3
20221205095343 27 323 2.0 5.0 0.00 0.00 0.00 80 1005.1
20221205095114 27 304 1.0 4.0 0.00 0.00 0.00 80 1005.4